Regional Weather Roundup
Issued by NWS

Home | Current Version | Previous Version | Graphics & Text | Print | Product List | Glossary On
Versions: 1 2 3 4 5 6 7 8 9 10 11 12 13 14 15 16 17 18 19 20 21 22 23 24 25 26 27 28 29 30 31 32 33 34 35 36 37 38 39 40 41 42 43 44 45 46 47 48 49 50
000
ASUS43 KIND 200500
RWRIN

WEATHER ROUNDUP FOR INDIANA
NATIONAL WEATHER SERVICE INDIANAPOLIS IN
100 AM EDT SUN AUG 20 2017

NOTE: "FAIR" INDICATES FEW OR NO CLOUDS BELOW 12,000 FEET WITH NO
SIGNIFICANT WEATHER AND/OR OBSTRUCTIONS TO VISIBILITY.

* - STATION DOES NOT REPORT WEATHER SUCH AS PRECIPITATION OR FOG.

+ - STATION NOT QUALITY CONTROLLED BY THE NATIONAL WEATHER SERVICE.
    USE DATA WITH CAUTION...ESPECIALLY DEWPOINT AND RELATIVE
    HUMIDITY OBSERVATIONS.

INZ001>003-010>013-019-020-200600-
NORTHWEST INDIANA

CITY           SKY/WX    TMP DP  RH WIND       PRES   REMARKS
MONTICELLO +   CLEAR     66  65  95 CALM      30.00S
VALPARAISO     CLEAR     61  58  90 NE5       30.01R

$$

LMZ046-743>745-200600-
SOUTHERN LAKE MICHIGAN

STATION/POSITION TIME  TEMP    WIND        PRES    WAVE
                       AIR SEA DIR/SP/G            HT
                 (UTC) (F)     (DEG/KT/KT) (MB)    (FT)
BURNS HARBOR     0440   73     140/  5/  7 1016.3R
MICHIGAN CITY    0430   68     120/  6/  6   N/A
5NW MICH CITY    0450   72 75  130/  6/  8   N/A     1

$$

INZ004-005-014>016-021>024-200600-
NORTH CENTRAL INDIANA

CITY           SKY/WX    TMP DP  RH WIND       PRES   REMARKS
GOSHEN         CLEAR     62  57  83 CALM      30.02S
PERU/GRISSOM   CLEAR     65  62  89 SE3       30.01R
SOUTH BEND     CLEAR     60  59  96 NE3       30.02S

$$

INZ006>009-017-018-025>027-200600-
NORTHEAST INDIANA

CITY           SKY/WX    TMP DP  RH WIND       PRES   REMARKS
FORT WAYNE     CLEAR     63  59  87 S5        30.03R

$$

INZ028-029-035-036-043>045-051>053-200600-
WEST CENTRAL INDIANA

CITY           SKY/WX    TMP DP  RH WIND       PRES   REMARKS
LAFAYETTE      CLEAR     65  63  93 CALM      30.00R
TERRE HAUTE    CLEAR     67  65  93 E3        30.00R

$$

INZ030>032-037>040-046>048-054>057-064-065-200600-
CENTRAL INDIANA

CITY           SKY/WX    TMP DP  RH WIND       PRES   REMARKS
GREENWOOD *+   PTCLDY    71  62  71 E3        30.03R
INDIANAPOLIS   PTCLDY    74  62  66 E6        30.01R
-EAGLE CREEK   PTCLDY    74  62  66 E5        30.01R
KOKOMO +       CLEAR     63  61  93 SE6       30.03R
MT COMFORT *+  PTCLDY    64  63  94 CALM      30.03R
SHELBYVILLE    CLEAR     68  63  84 E7        30.01S

$$

INZ033-034-041-042-049-050-058-059-200600-
EAST CENTRAL INDIANA

CITY           SKY/WX    TMP DP  RH WIND       PRES   REMARKS
MUNCIE         PTCLDY    65  62  90 CALM      30.03R
RICHMOND +     PTCLDY    63  61  94 E6        30.06R

$$

INZ060-061-067>069-081>083-085>088-200600-
SOUTHWEST INDIANA

CITY           SKY/WX    TMP DP  RH WIND       PRES   REMARKS
EVANSVILLE     CLEAR     73  69  87 CALM      30.00R
HUNTINGBURG +  CLEAR     70  68  93 S5        30.01R

$$

INZ062-063-066-070>080-084-089>092-200600-
SOUTH CENTRAL AND SOUTHEAST INDIANA

CITY           SKY/WX    TMP DP  RH WIND       PRES   REMARKS
BLOOMINGTON    PTCLDY    70  66  87 CALM      30.00S
MADISON *+     CLOUDY    70  68  94 CALM      30.04R
SEYMOUR +      CLEAR     72  68  88 CALM      30.00R

$$





USA.gov is the U.S. government's official web portal to all federal, state and local government web resources and services.